Weather History for Litchfield, MN

Change the Weather History Date:

Tuesday, October 28, 2014

  Actual Average Record
Temperature  
Mean Temperature 42 °F -  
Max Temperature 46 °F 54 °F 74 °F (1983)
Min Temperature 39 °F 33 °F 15 °F (1967)
Degree Days  
Heating Degree Days 22    
Moisture  
Dew Point 38 °F    
Average Humidity 86    
Maximum Humidity 100    
Minimum Humidity 75    
Precipitation  
Precipitation 0.00 in - - ()
Sea Level Pressure  
Sea Level Pressure 29.84 in    
Wind  
Wind Speed 11 mph (West)    
Max Wind Speed 21 mph    
Max Gust Speed 28 mph    
Visibility 10 miles    
Events Rain    
Averages and records for this station are not official NWS values.
T = Trace of Precipitation, MM = Missing Value Source: NWS Daily Summary

Daily Weather History Graph

Daily Weather History Graph

Search for Another Location

Airport:

Trip Planner

Search our weather history database for the weather conditions in past years. The results will help you decide how hot, cold, wet, or windy it might be!

Date:

Astronomy

Oct. 28, 2014 Rise Set
Actual Time 7:51 AM CDT 6:11 PM CDT
Civil Twilight 7:20 AM CDT 6:42 PM CDT
Nautical Twilight 6:46 AM CDT 7:16 PM CDT
Astronomical Twilight 6:12 AM CDT 7:50 PM CDT
Moon 12:26 PM CDT (10/28) 10:13 PM CDT (10/28)
Length of Visible Light 11h 21m
Length of Day
10h 20m
Waxing Crescent, 24% of the Moon is Illuminated
Oct 28
Waxing Crescent
Oct 30
First Quarter
Nov 6
Full
Nov 14
Last Quarter
Nov 22
New

Hourly Weather History & Observations

Time (CDT) Temp. Windchill Dew Point Humidity Pressure Visibility Wind Dir Wind Speed Gust Speed Precip Events Conditions
12:13 AM 42.8 °F 41.1 °F 42.8 °F 100% 29.72 in 10.0 mi SW 3.5 mph - N/A   Clear
12:32 AM 41.0 °F 38.0 °F 41.0 °F 100% 29.71 in 10.0 mi SW 4.6 mph - N/A   Clear
12:53 AM 41.0 °F 36.4 °F 41.0 °F 100% 29.72 in 10.0 mi WSW 6.9 mph - N/A   Scattered Clouds
1:13 AM 41.0 °F 36.4 °F 39.2 °F 93% 29.72 in 10.0 mi WSW 6.9 mph - N/A   Scattered Clouds
1:32 AM 42.8 °F 37.5 °F 39.2 °F 87% 29.73 in 10.0 mi West 9.2 mph - N/A   Mostly Cloudy
1:53 AM 42.8 °F 38.0 °F 39.2 °F 87% 29.73 in 10.0 mi West 8.1 mph 17.3 mph N/A   Scattered Clouds
2:13 AM 42.8 °F 37.0 °F 39.2 °F 87% 29.73 in 10.0 mi West 10.4 mph 18.4 mph N/A   Mostly Cloudy
2:32 AM 42.8 °F 35.4 °F 37.4 °F 81% 29.73 in 10.0 mi West 15.0 mph 20.7 mph N/A   Scattered Clouds
2:53 AM 41.0 °F 33.9 °F 37.4 °F 87% 29.73 in 10.0 mi West 12.7 mph 17.3 mph N/A   Clear
3:13 AM 41.0 °F 33.5 °F 37.4 °F 87% 29.73 in 10.0 mi West 13.8 mph 18.4 mph N/A   Clear
3:32 AM 39.2 °F 33.0 °F 37.4 °F 93% 29.73 in 10.0 mi West 9.2 mph 17.3 mph N/A   Clear
3:53 AM 39.2 °F 33.0 °F 37.4 °F 93% 29.72 in 10.0 mi West 9.2 mph 18.4 mph N/A   Scattered Clouds
4:12 AM 39.2 °F 32.5 °F 37.4 °F 93% 29.72 in 10.0 mi West 10.4 mph - N/A   Overcast
4:33 AM 39.2 °F 32.0 °F 37.4 °F 93% 29.72 in 10.0 mi West 11.5 mph 18.4 mph N/A   Overcast
4:52 AM 41.0 °F 34.3 °F 37.4 °F 87% 29.73 in 10.0 mi West 11.5 mph 18.4 mph N/A   Overcast
5:13 AM 41.0 °F 34.7 °F 37.4 °F 87% 29.73 in 10.0 mi West 10.4 mph 17.3 mph N/A   Overcast
5:33 AM 42.8 °F 37.5 °F 39.2 °F 87% 29.73 in 10.0 mi West 9.2 mph - N/A   Overcast
5:52 AM 42.8 °F 37.0 °F 39.2 °F 87% 29.73 in 10.0 mi West 10.4 mph 16.1 mph N/A   Overcast
6:13 AM 41.0 °F 34.7 °F 39.2 °F 93% 29.73 in 10.0 mi West 10.4 mph - N/A   Overcast
6:33 AM 42.8 °F 36.6 °F 39.2 °F 87% 29.73 in 10.0 mi West 11.5 mph 17.3 mph N/A   Overcast
6:52 AM 42.8 °F 37.0 °F 39.2 °F 87% 29.73 in 10.0 mi West 10.4 mph 16.1 mph N/A   Overcast
7:13 AM 42.8 °F 37.5 °F 39.2 °F 87% 29.74 in 10.0 mi West 9.2 mph 17.3 mph N/A   Overcast
7:33 AM 42.8 °F 37.5 °F 41.0 °F 93% 29.74 in 7.0 mi West 9.2 mph - N/A   Overcast
7:52 AM 42.8 °F 36.6 °F 41.0 °F 93% 29.74 in 10.0 mi West 11.5 mph 17.3 mph N/A   Overcast
8:13 AM 42.8 °F 37.0 °F 41.0 °F 93% 29.75 in 10.0 mi West 10.4 mph - N/A   Overcast
8:33 AM 42.8 °F 37.0 °F 41.0 °F 93% 29.75 in 10.0 mi West 10.4 mph 16.1 mph N/A   Overcast
8:52 AM 42.8 °F 36.6 °F 41.0 °F 93% 29.76 in 10.0 mi West 11.5 mph 16.1 mph N/A   Overcast
9:13 AM 42.8 °F 36.6 °F 41.0 °F 93% 29.77 in 10.0 mi West 11.5 mph 18.4 mph N/A   Overcast
9:32 AM 42.8 °F 36.2 °F 42.8 °F 100% 29.77 in 10.0 mi West 12.7 mph 21.9 mph N/A   Overcast
9:53 AM 44.6 °F 38.8 °F 42.8 °F 93% 29.78 in 10.0 mi West 11.5 mph 18.4 mph N/A   Overcast
10:13 AM 44.6 °F 38.1 °F 42.8 °F 93% 29.79 in 10.0 mi WNW 13.8 mph 20.7 mph N/A   Overcast
10:32 AM 44.6 °F 37.8 °F 42.8 °F 93% 29.79 in 10.0 mi West 15.0 mph - N/A   Overcast
10:53 AM 44.6 °F 36.9 °F 42.8 °F 93% 29.80 in 10.0 mi WNW 18.4 mph 24.2 mph N/A   Overcast
11:13 AM 46.4 °F 39.5 °F 42.8 °F 87% 29.81 in 10.0 mi WNW 17.3 mph 21.9 mph N/A   Overcast
11:32 AM 46.4 °F 41.5 °F 41.0 °F 81% 29.82 in 10.0 mi WNW 10.4 mph 25.3 mph N/A   Overcast
11:53 AM 46.4 °F 40.4 °F 39.2 °F 76% 29.83 in 10.0 mi WNW 13.8 mph 25.3 mph N/A   Overcast
12:13 PM 46.4 °F 39.0 °F 39.2 °F 76% 29.84 in 10.0 mi WNW 19.6 mph 24.2 mph N/A   Overcast
12:32 PM 44.6 °F 37.4 °F 39.2 °F 81% 29.84 in 10.0 mi WNW 16.1 mph 26.5 mph N/A   Overcast
12:53 PM 44.6 °F 36.9 °F 39.2 °F 81% 29.85 in 10.0 mi WNW 18.4 mph 24.2 mph N/A   Overcast
1:13 PM 44.6 °F 37.8 °F 39.2 °F 81% 29.85 in 10.0 mi WNW 15.0 mph 24.2 mph N/A   Overcast
1:32 PM 44.6 °F 36.4 °F 37.4 °F 76% 29.85 in 10.0 mi WNW 20.7 mph 25.3 mph N/A   Overcast
1:53 PM 44.6 °F 37.4 °F 37.4 °F 76% 29.86 in 10.0 mi WNW 16.1 mph 24.2 mph N/A   Overcast
2:13 PM 42.8 °F 34.8 °F 39.2 °F 87% 29.87 in 4.0 mi West 17.3 mph 23.0 mph N/A   Overcast
2:32 PM 42.8 °F 35.1 °F 39.2 °F 87% 29.87 in 7.0 mi West 16.1 mph 24.2 mph N/A   Overcast
2:53 PM 42.8 °F 35.8 °F 39.2 °F 87% 29.87 in 7.0 mi WNW 13.8 mph 20.7 mph N/A   Overcast
3:13 PM 41.0 °F 32.8 °F 37.4 °F 87% 29.88 in 10.0 mi WNW 16.1 mph 25.3 mph N/A   Light Drizzle
3:33 PM 41.0 °F 33.1 °F 37.4 °F 87% 29.89 in 10.0 mi West 15.0 mph 25.3 mph N/A   Overcast
3:52 PM 42.8 °F 35.1 °F 37.4 °F 81% 29.89 in 10.0 mi WNW 16.1 mph 26.5 mph N/A   Overcast
4:13 PM 42.8 °F 34.5 °F 35.6 °F 76% 29.90 in 10.0 mi WNW 18.4 mph 27.6 mph N/A   Overcast
4:32 PM 42.8 °F 35.4 °F 35.6 °F 76% 29.91 in 10.0 mi WNW 15.0 mph 26.5 mph N/A   Overcast
4:53 PM 41.0 °F 32.5 °F 37.4 °F 87% 29.92 in 10.0 mi West 17.3 mph 25.3 mph N/A   Overcast
5:13 PM 41.0 °F 33.1 °F 35.6 °F 81% 29.92 in 10.0 mi WNW 15.0 mph 25.3 mph N/A   Overcast
5:33 PM 42.8 °F 34.5 °F 35.6 °F 76% 29.93 in 10.0 mi WNW 18.4 mph 24.2 mph N/A   Overcast
5:53 PM 39.2 °F 29.8 °F 37.4 °F 93% 29.93 in 7.0 mi West 18.4 mph - N/A Rain Light Rain
6:13 PM 39.2 °F 29.8 °F 37.4 °F 93% 29.94 in 7.0 mi WNW 18.4 mph - N/A Rain Light Rain
6:33 PM 39.2 °F 31.2 °F 37.4 °F 93% 29.95 in 7.0 mi WNW 13.8 mph 24.2 mph N/A   Light Drizzle
6:53 PM 39.2 °F 30.5 °F 35.6 °F 87% 29.95 in 10.0 mi WNW 16.1 mph 25.3 mph N/A   Overcast
7:12 PM 39.2 °F 31.2 °F 35.6 °F 87% 29.96 in 10.0 mi WNW 13.8 mph 20.7 mph N/A   Overcast
7:33 PM 41.0 °F 33.9 °F 35.6 °F 81% 29.96 in 10.0 mi WNW 12.7 mph 20.7 mph N/A   Overcast
7:53 PM 41.0 °F 33.5 °F 35.6 °F 81% 29.97 in 10.0 mi WNW 13.8 mph 21.9 mph N/A   Overcast
8:12 PM 41.0 °F 33.1 °F 35.6 °F 81% 29.97 in 10.0 mi WNW 15.0 mph 19.6 mph N/A   Overcast
8:33 PM 41.0 °F 31.9 °F 33.8 °F 76% 29.97 in 10.0 mi WNW 19.6 mph 26.5 mph N/A   Overcast
8:52 PM 41.0 °F 33.9 °F 33.8 °F 76% 29.97 in 10.0 mi WNW 12.7 mph 24.2 mph N/A   Overcast
9:13 PM 41.0 °F 33.5 °F 33.8 °F 76% 29.98 in 10.0 mi WNW 13.8 mph 25.3 mph N/A   Overcast
9:32 PM 41.0 °F 32.2 °F 33.8 °F 76% 29.98 in 10.0 mi WNW 18.4 mph 27.6 mph N/A   Overcast
9:53 PM 41.0 °F 31.6 °F 33.8 °F 76% 29.99 in 10.0 mi WNW 20.7 mph 25.3 mph N/A   Overcast
10:13 PM 41.0 °F 32.5 °F 33.8 °F 76% 29.99 in 10.0 mi WNW 17.3 mph 24.2 mph N/A   Overcast
10:32 PM 39.2 °F 30.2 °F 33.8 °F 81% 30.00 in 10.0 mi WNW 17.3 mph 24.2 mph N/A   Overcast
10:53 PM 39.2 °F 30.2 °F 33.8 °F 81% 30.00 in 10.0 mi WNW 17.3 mph 25.3 mph N/A   Overcast
11:13 PM 39.2 °F 31.2 °F 33.8 °F 81% 30.01 in 10.0 mi WNW 13.8 mph 25.3 mph N/A   Overcast
11:32 PM 39.2 °F 29.6 °F 33.8 °F 81% 30.01 in 10.0 mi WNW 19.6 mph 25.3 mph N/A   Overcast
11:53 PM 39.2 °F 30.8 °F 32.0 °F 75% 30.01 in 10.0 mi NW 15.0 mph 26.5 mph N/A   Overcast